TDRS 3

Last updated on Sat Mar 07 2026 00:02:43 GMT+0000 (Coordinated Universal Time)

1 19548U 88091B 26064.79815523 -.00000303 00000+0 00000+0 0 9996 2 19548 12.6797 341.6841 0044183 353.3967 66.2018 1.00259845124356
UTC large
Height (km)
Speed (km/s)
/
Latitude / Longitude
Inclination (degrees)
Orbital Period (minutes)
Azimuth
Elevation
Range (km)
Doppler Factor

Next 0 passes for location: London (51.5072 / 0.1276)

Sorry there are no passes over London.